This demonstration page uses our WeatherBlox Daily Observations layout. Learn more.

Hourly Observations for May 14, 2018

Temp ( °F °C ) Dew Point ( °F °C ) Humidity (%) Winds ( mph kmh ) Pressure ( in mb ) Visibility ( mi km ) Precip ( " mm )
12:54 am 00:54 Mostly Cloudy with Mist and Fog 60 15.6 57 13.9 90 90 NNE 7 11 29.91 1013 6 9.65604 0 0
1:43 am 01:43 Mostly Cloudy 61 16.1 57 13.9 87 87 E 5 7 29.97 1015 7 11.26538 0 0
1:54 am 01:54 Mostly Cloudy 61 16.1 57 13.9 87 87 SSW 8 13 29.96 1015 7 11.26538 0 0
2:24 am 02:24 Mostly Cloudy with Light Rain 61 16.1 57 13.9 87 87 N 5 7 29.91 1013 6 9.65604 0 0.0254
2:54 am 02:54 Clear with Mist and Fog 60 15.6 58 14.4 93 93 NW 5 7 29.92 1013 6 9.65604 0 0.0254
3:54 am 03:54 Clear with Mist and Fog 59 15 57 13.9 93 93 N 13 20 29.85 1011 5 8.0467 0 0
4:32 am 04:32 Mostly Cloudy with Mist and Fog 60 15.6 58 14.4 93 93 VRB 7 11 29.83 1010 5 8.0467 0 0.0254
4:41 am 04:41 Mostly Cloudy with Mist and Fog 60 15.6 58 14.4 93 93 NNW 14 22 29.83 1010 5 8.0467 0 0.0254
4:54 am 04:54 Cloudy with Mist and Fog 61 16.1 58 14.4 90 90 NW 9 15 29.85 1011 6 9.65604 0 0.0254
5:54 am 05:54 Cloudy with Mist and Fog 61 16.1 58 14.4 90 90 N 14 22 29.87 1012 5 8.0467 0 0
6:54 am 06:54 Cloudy with Mist and Fog 61 16.1 58 14.4 90 90 WNW 6 9 29.93 1014 4 6.43736 0 0
7:54 am 07:54 Cloudy with Mist and Fog 61 16.1 57 13.9 87 87 NW 7 11 29.95 1014 5 8.0467 0 0
8:54 am 08:54 Cloudy 62 16.7 57 13.9 84 84 NW 8 13 29.96 1015 7 11.26538 0 0
9:54 am 09:54 Cloudy 63 17.2 57 13.9 81 81 WNW 9 15 30.01 1016 10 16.0934 0 0
10:17 am 10:17 Mostly Cloudy with Nearby Thunderstorms 65 18.3 57 13.9 76 76 WNW 8 13 29.97 1015 10 16.0934 0 0
10:32 am 10:32 Cloudy 64 17.8 57 13.9 78 78 Calm 29.97 1015 10 16.0934 0 0
10:54 am 10:54 Cloudy with Light Rain 63 17.2 58 14.4 84 84 E 22 35 29.87 1011 5 8.0467 0.01 0.254
11:50 am 11:50 Cloudy with Nearby Thunderstorms 64 18 61 16 88 88 SE 10 17 29.88 1012 7 11.26538 0.01 0.254
11:54 am 11:54 Cloudy with Nearby Thunderstorms 64 17.8 60 15.6 87 87 SSE 13 20 29.9 1013 7 11.26538 0.01 0.254
12:05 pm 12:05 Mostly Cloudy with Light Rain 64 17.8 61 16.1 90 90 SSE 13 20 29.88 1012 7 11.26538 0 0.0254
12:54 pm 12:54 Sunny 69 20.6 63 17.2 81 81 NNW 8 13 29.9 1012 8 12.87472 0 0.0254
1:54 pm 13:54 Sunny 74 23.3 61 16.1 64 64 NW 16 26 29.89 1012 10 16.0934 0 0
2:54 pm 14:54 Mostly Cloudy 75 23.9 61 16.1 62 62 N 12 19 29.89 1012 10 16.0934 0 0
3:54 pm 15:54 Cloudy 74 23.3 60 15.6 62 62 WNW 6 9 29.88 1012 10 16.0934 0 0
4:54 pm 16:54 Cloudy 75 23.9 61 16.1 62 62 N 14 22 29.85 1011 10 16.0934 0 0
5:54 pm 17:54 Cloudy 75 23.9 61 16.1 62 62 N 9 15 29.85 1011 10 16.0934 0 0
6:54 pm 18:54 Cloudy 72 22.2 59 15 64 64 N 15 24 29.86 1011 10 16.0934 0 0
7:54 pm 19:54 Cloudy 71 21.7 60 15.6 68 68 NNE 8 13 29.86 1011 10 16.0934 0 0
8:54 pm 20:54 Cloudy 69 20.6 60 15.6 73 73 N 8 13 29.86 1011 10 16.0934 0 0
9:54 pm 21:54 Cloudy 68 20 60 15.6 76 76 N 8 13 29.89 1012 10 16.0934 0 0
10:54 pm 22:54 Cloudy 67 19.4 60 15.6 79 79 N 12 19 29.9 1013 10 16.0934 0 0
11:54 pm 23:54 Cloudy 65 18.3 59 15 81 81 N 7 11 29.92 1013 10 16.0934 0 0

Powered by AerisWeather